Regional Weather Roundup
Issued by NWS

Home | Current Version | Previous Version | Text Only | Print | Product List | Glossary Off
Versions: 1 2 3 4 5 6 7 8 9 10 11 12 13 14 15 16 17 18 19 20 21 22 23 24 25 26 27 28 29 30 31 32 33 34 35 36 37 38 39 40 41 42 43 44 45 46 47 48 49 50

000
ASUS43 KOAX 210910
RWRNE

WEATHER ROUNDUP FOR NEBRASKA
NATIONAL WEATHER SERVICE OMAHA NE
300 AM CST SUN DEC 21 2014

NOTES: SATELLITE DATA IS BEING USED TO AUGMENT CLOUD COVER ABOVE
       12000 FEET.
       "FAIR" INDICATES FEW OR NO CLOUDS BELOW 12,000 FEET WITH NO
       SIGNIFICANT WEATHER AND/OR OBSTRUCTIONS TO VISIBILITY.

  * THESE STATIONS DO NOT REPORT WEATHER SUCH AS RAIN...SNOW OR FOG.

NEZ001>004-019>022-054>056-211000-
NEBRASKA PANHANDLE

CITY           SKY/WX    TMP DP  RH WIND       PRES   REMARKS
SCOTTSBLUFF    CLEAR     24  19  81 CALM      29.81F
ALLIANCE       CLEAR     30  24  78 SW13      29.80S WCI  20
CHADRON        CLEAR     25  22  88 SW5       29.76F WCI  19
KIMBALL        PTCLDY    28  22  78 SW8       29.83F WCI  20
SIDNEY         CLOUDY    32  26  78 W3        29.86F
$$

NEZ057>060-069>072-079>082-211000-
SOUTHWEST NEBRASKA

CITY           SKY/WX    TMP DP  RH WIND       PRES   REMARKS
NORTH PLATTE   MOCLDY    25  23  92 W3        29.87F
IMPERIAL       CLOUDY    35  26  69 W7        29.86F WCI  29
LEXINGTON      PTCLDY    29  28  93 W3        29.87F
MCCOOK         CLOUDY    30  26  85 SW8       29.88F WCI  22
OGALLALA       CLOUDY    27  25  93 W3        29.85F
$$

NEZ005>010-023>029-035>040-094-211000-
NORTH CENTRAL NEBRASKA

CITY           SKY/WX    TMP DP  RH WIND       PRES   REMARKS
VALENTINE      CLOUDY    27  23  85 CALM      29.80F
AINSWORTH      CLOUDY    31  25  78 SW5       29.81F WCI  26
BROKEN BOW     PTCLDY    29  25  85 CALM      29.85F
O`NEILL        FOG       26  26 100 S3        29.84F VSB 3/4
THEDFORD       CLOUDY    30  27  88 CALM      29.83F
$$

NEZ041-046>049-061>064-073>077-083>087-211000-
SOUTH CENTRAL NEBRASKA

CITY           SKY/WX    TMP DP  RH WIND       PRES   REMARKS
GRAND ISLAND   FOG       26  25  96 S7        29.89F VSB 1/2 WCI  18
AURORA         FOG       31  31 100 S7        29.89F VSB 1/2 WCI  24
HASTINGS       PTCLDY    32  30  92 S6        29.89F WCI  26
HEBRON         PTCLDY    35  33  92 S8        29.95F FOG     WCI  28
HOLDREGE       PTCLDY    33  31  90 SW5       29.88F WCI  29
KEARNEY *      MOCLDY    30  27  86 SW7       29.88F WCI  23
YORK           CLOUDY    32  32 100 S8        29.91F FOG     WCI  25
$$

NEZ011>018-030>034-042>045-211000-
NORTHEAST NEBRASKA

CITY           SKY/WX    TMP DP  RH WIND       PRES   REMARKS
NORFOLK        FOG       33  33 100 S10       29.88F VSB 3/4 WCI  25
ALBION         FOG       31  30  95 S7        29.88S VSB 1/4 WCI  24
BLAIR          CLOUDY    37  36  95 S14       29.94F FOG     WCI  28
COLUMBUS *     CLOUDY    36  32  87 S9        29.91F VSB 1/2 WCI  29
FREMONT        CLOUDY    38  37  97 S7        29.93F FOG     WCI  33
TEKAMAH        CLOUDY    35  34  96 SE10      29.94F FOG     WCI  27
WAYNE          FOG       33  33  99 S8        29.89F VSB 1/2 WCI  26
$$

NEZ050>053-065>068-078-088>093-211000-
SOUTHEAST NEBRASKA

CITY           SKY/WX    TMP DP  RH WIND       PRES   REMARKS
LINCOLN        CLOUDY    37  35  92 S9        29.96F WCI  30
OMAHA EPPLEY   CLOUDY    36  35  96 S12       29.99S FOG     WCI  28
BEATRICE       CLOUDY    38  37  95 S12       29.98F WCI  30
FALLS CITY     CLOUDY    35  33  92 S8        30.03F WCI  29
NEBRASKA CITY  CLOUDY    34  34 100 S10       30.00S FOG     WCI  26
PLATTSMOUTH    CLOUDY    33  32  95 S12       29.97F FOG     WCI  25
$$

NEZ044-045-051>053-067-211000-
OMAHA AREA

CITY           SKY/WX    TMP DP  RH WIND       PRES   REMARKS
OMAHA EPPLEY   CLOUDY    36  35  96 S12       29.99S FOG     WCI  28
BLAIR          CLOUDY    37  36  95 S14       29.94F FOG     WCI  28
FREMONT        CLOUDY    38  37  97 S7        29.93F FOG     WCI  33
MILLARD        CLOUDY    37  35  93 SE9       29.97F FOG     WCI  30
OFFUTT AFB     CLOUDY    35  33  96 SE5       29.97F FOG     WCI  30
PLATTSMOUTH    CLOUDY    33  32  95 S12       29.97F FOG     WCI  25
WAHOO          CLOUDY    35  33  93 SE9       29.94F FOG     WCI  28
$$


USA.gov is the U.S. government's official web portal to all federal, state and local government web resources and services.